FW7576 Weather Reports


Display with metric or nautical units.
time (UTC)temp
F
wind
direction
speed
MPH
gust
MPH
rain 1hr
in
rain 24hr
in
rain mn
in
humidity
%
barometer
mb
20260508100034 33 0 0.0 0.0 0.00 0.00 0.00 89 1010.9
20260508094602 34 0 0.0 1.0 0.00 0.00 0.00 88 1010.9
20260508093038 33 0 0.0 0.0 0.00 0.00 0.00 88 1011.0
20260508091540 33 0 0.0 0.0 0.00 0.00 0.00 88 1011.3
20260508090038 33 0 0.0 0.0 0.00 0.00 0.00 87 1011.1
20260508084534 33 0 0.0 0.0 0.00 0.00 0.00 87 1011.5
20260508083031 33 0 0.0 0.0 0.00 0.00 0.00 87 1011.2
20260508081559 33 0 0.0 0.0 0.00 0.00 0.00 87 1011.4
20260508080038 33 150 0.0 1.0 0.00 0.00 0.00 86 1011.6
20260508074536 34 0 0.0 1.0 0.00 0.00 0.00 86 1011.6
20260508073041 34 0 0.0 0.0 0.00 0.00 0.00 85 1011.7
20260508071542 34 0 0.0 2.0 0.00 0.00 0.00 85 1011.9
20260508070043 35 0 0.0 1.0 0.00 0.00 0.00 85 1011.9
20260508064539 34 0 0.0 1.0 0.00 0.00 0.00 84 1012.0
20260508063047 35 0 0.0 1.0 0.00 0.00 0.00 84 1012.0
20260508061535 35 0 0.0 0.0 0.00 0.00 0.00 84 1012.0
20260508060037 35 0 0.0 0.0 0.00 0.00 0.00 83 1012.3
20260508054532 36 0 0.0 0.0 0.00 0.00 0.00 82 1012.4
20260508053041 36 0 0.0 0.0 0.00 0.00 0.00 81 1012.5
20260508051539 36 0 0.0 0.0 0.00 0.00 0.00 81 1012.5
20260508050042 36 0 0.0 0.0 0.00 0.00 0.00 83 1012.5
20260508044534 36 0 0.0 0.0 0.00 0.00 0.00 81 1012.4
20260508043039 37 0 0.0 0.0 0.00 0.00 0.00 81 1012.2
20260508041537 37 0 0.0 0.0 0.00 0.00 0.00 80 1012.1
20260508040045 37 0 0.0 0.0 0.00 0.00 0.00 80 1011.9
20260508034535 37 0 0.0 1.0 0.00 0.00 0.00 78 1011.8
20260508033039 38 0 0.0 0.0 0.00 0.00 0.00 76 1011.6
20260508031610 39 0 0.0 0.0 0.00 0.00 0.00 75 1011.7
20260508030037 40 0 0.0 1.0 0.00 0.00 0.00 73 1011.6
20260508024546 40 0 0.0 1.0 0.00 0.00 0.00 72 1011.5
20260508023035 41 134 0.0 1.0 0.00 0.00 0.00 71 1011.2
20260508021540 41 135 0.0 2.0 0.00 0.00 0.00 69 1011.0
20260508020031 41 138 0.0 4.0 0.00 0.00 0.00 67 1011.1
20260508014542 42 0 0.0 2.0 0.00 0.00 0.00 67 1010.9
20260508013035 42 104 0.0 4.0 0.00 0.00 0.00 66 1010.7
20260508011536 42 104 2.0 5.0 0.00 0.00 0.00 64 1010.7
20260508010036 43 74 2.0 7.0 0.00 0.00 0.00 62 1010.6
20260508004538 44 0 1.0 9.0 0.00 0.00 0.00 61 1010.5
20260508003036 44 125 3.0 8.0 0.00 0.00 0.00 63 1010.3
20260508001536 46 99 3.0 8.0 0.00 0.00 0.00 62 1010.3
20260508000037 46 60 4.0 9.0 0.00 0.00 0.00 62 1010.2
20260507234538 46 101 3.0 10.0 0.00 0.00 0.00 65 1010.2
20260507233041 47 75 3.0 8.0 0.00 0.00 0.00 63 1010.2
20260507231538 47 68 3.0 12.0 0.00 0.00 0.00 62 1010.1
20260507230045 49 89 4.0 7.0 0.00 0.00 0.00 62 1010.3
20260507224543 49 86 5.0 10.0 0.00 0.00 0.00 61 1010.2
20260507223038 49 80 4.0 7.0 0.00 0.00 0.00 60 1010.4
20260507221540 49 53 4.0 8.0 0.00 0.00 0.00 56 1010.3
20260507220037 49 113 3.0 11.0 0.00 0.00 0.00 53 1010.3
20260507214549 49 70 4.0 12.0 0.00 0.00 0.00 51 1010.2
20260507213044 51 122 4.0 14.0 0.00 0.00 0.00 48 1010.3
20260507211538 50 169 4.0 16.0 0.00 0.00 0.00 52 1010.2
20260507210038 49 180 6.0 13.0 0.00 0.00 0.00 53 1010.1
20260507204538 49 149 5.0 14.0 0.00 0.00 0.00 53 1010.4
20260507203043 48 103 11.0 17.0 0.00 0.00 0.00 53 1010.7
20260507201549 49 150 5.0 10.0 0.00 0.00 0.00 58 1010.9
20260507200055 48 105 3.0 7.0 0.00 0.00 0.00 64 1011.3
20260507194535 47 93 0.0 7.0 0.00 0.00 0.00 67 1011.6
20260507193039 47 66 5.0 11.0 0.00 0.00 0.00 56 1011.6
20260507191535 48 83 5.0 14.0 0.00 0.00 0.00 53 1011.4
20260507190034 48 46 7.0 12.0 0.00 0.00 0.00 52 1011.4
20260507184541 49 109 6.0 12.0 0.00 0.00 0.00 50 1011.8
20260507183038 49 155 5.0 15.0 0.00 0.00 0.00 50 1011.7
20260507181538 49 113 6.0 11.0 0.00 0.00 0.00 50 1011.9
20260507180039 50 128 6.0 13.0 0.00 0.00 0.00 49 1012.2
20260507174541 52 129 4.0 12.0 0.00 0.00 0.00 47 1012.2
20260507173039 55 255 5.0 12.0 0.00 0.00 0.00 41 1012.2
20260507171538 53 251 6.0 15.0 0.00 0.00 0.00 40 1012.6
20260507170038 53 246 3.0 7.0 0.00 0.00 0.00 41 1012.9
20260507164540 52 207 3.0 11.0 0.00 0.00 0.00 43 1013.1
20260507163041 51 293 3.0 8.0 0.00 0.00 0.00 46 1013.2
20260507161541 50 283 1.0 5.0 0.00 0.00 0.00 45 1013.4
20260507160041 50 274 3.0 6.0 0.00 0.00 0.00 44 1013.8
20260507154542 48 246 2.0 5.0 0.00 0.00 0.00 48 1013.9
20260507153038 47 228 2.0 7.0 0.00 0.00 0.00 50 1014.1
20260507151536 46 269 3.0 9.0 0.00 0.00 0.00 51 1014.4
20260507150036 45 238 5.0 9.0 0.00 0.00 0.00 51 1014.5
20260507144539 44 224 3.0 6.0 0.00 0.00 0.00 56 1014.6
20260507143039 42 270 3.0 7.0 0.00 0.00 0.00 60 1014.7
20260507141539 42 353 1.0 7.0 0.00 0.00 0.00 65 1015.2
20260507140036 41 316 2.0 9.0 0.00 0.00 0.00 67 1015.3
20260507134542 40 311 3.0 7.0 0.00 0.00 0.00 69 1015.5
20260507133056 40 327 5.0 10.0 0.00 0.00 0.00 66 1015.4
20260507131545 41 259 7.0 15.0 0.00 0.00 0.00 59 1015.6
20260507130054 41 278 3.0 7.0 0.00 0.00 0.00 56 1015.4
20260507124537 41 263 4.0 9.0 0.00 0.00 0.00 56 1015.2
20260507123036 40 245 4.0 9.0 0.00 0.00 0.00 58 1015.2
20260507121540 39 243 2.0 5.0 0.00 0.00 0.00 63 1015.2
20260507120052 37 244 2.0 6.0 0.00 0.00 0.00 65 1015.1
20260507114612 36 250 3.0 4.0 0.00 0.00 0.00 66 1014.9
20260507113038 35 230 1.0 5.0 0.00 0.00 0.00 69 1014.8
20260507111537 34 233 1.0 3.0 0.00 0.00 0.00 71 1014.6
20260507110036 33 231 0.0 2.0 0.00 0.00 0.00 72 1014.2
20260507104535 33 240 0.0 3.0 0.00 0.00 0.00 72 1014.5
20260507103040 33 239 1.0 3.0 0.00 0.00 0.00 72 1014.6
20260507101543 33 243 2.0 3.0 0.00 0.00 0.00 72 1014.6